Location: Unspecified
(48.5539°N, 71.6350°W)
Time: 21:13:02
(UTC-04:00)

ISS - Visible Passes

Search period start: 26 May 2019 00:00
Search period end: 05 June 2019 00:00
Orbit: 408 x 418 km, 51.6° (Epoch: 27 May)

Date Brightness Start Highest point End Pass type
(mag) Time Alt. Az. Time Alt. Az. Time Alt. Az.
26 May -2.7 21:13:32 10° W 21:16:47 48° N 21:20:03 10° ENE visible
26 May -3.5 22:50:24 10° WNW 22:53:45 69° NNE 22:55:38 23° E visible
27 May -1.7 00:27:14 10° W 00:28:26 18° W 00:28:26 18° W visible
27 May -3.1 22:00:55 10° WNW 22:04:13 56° N 22:07:32 10° E visible
27 May -3.3 23:37:40 10° WNW 23:40:33 45° SW 23:40:33 45° SW visible
28 May -2.9 21:11:24 10° WNW 21:14:41 49° N 21:17:57 10° E visible
28 May -3.8 22:48:08 10° WNW 22:51:29 71° SSW 22:52:41 36° SE visible
29 May -3.7 21:58:39 10° WNW 22:02:01 83° NNE 22:04:50 14° ESE visible
29 May -2.0 23:35:41 10° W 23:37:39 21° WSW 23:37:39 21° WSW visible
30 May -2.9 22:45:57 10° WNW 22:49:03 35° SW 22:49:49 31° S visible
31 May -3.5 21:56:21 10° WNW 21:59:38 54° SSW 22:02:01 17° SE visible
01 Jun -1.8 22:44:09 10° W 22:46:25 17° SW 22:47:04 16° SSW visible
02 Jun -2.3 21:54:13 10° W 21:57:05 26° SW 21:59:20 14° SSE visible
04 Jun -1.3 21:52:50 10° WSW 21:54:18 12° SW 21:55:46 10° SSW visible
